Location: Aufkirchen
(47.9603°N, 11.3653°E)
Time: 11:22:51
(UTC+01:00)

deb Explorer IX - Pass Details

Date: 27 November 2020
Orbit: 536 x 1104 km, 38.8° (Epoch: 19 January)

Event Time Altitude Azimuth Distance (km) Brightness Sun altitude
Rises 18:16:14 0° 237° (WSW) 3,399 ? -17.9°
Reaches altitude 10° 18:19:17 10° 225° (SW) 2,355 ? -18.4°
Maximum altitude 18:23:44 26° 171° (S) 1,403 ? -19.1°
Enters shadow 18:25:38 20° 137° (SE) 1,554 ? -19.4°
